EW7199 Weather Reports


Display with metric or nautical units.
time (UTC)temp
F
wind
direction
speed
MPH
gust
MPH
rain 1hr
in
rain 24hr
in
rain mn
in
humidity
%
barometer
mb
20240621145908 94 152 1.0 3.0 0.00 0.00 0.00 40 1011.7
20240621145408 94 126 2.0 3.0 0.00 0.00 0.00 39 1011.7
20240621144908 94 132 1.0 3.0 0.00 0.00 0.00 40 1011.7
20240621143908 93 142 2.0 3.0 0.00 0.00 0.00 43 1011.8
20240621143409 93 170 2.0 3.0 0.00 0.00 0.00 42 1012.0
20240621142408 93 149 2.0 3.0 0.00 0.00 0.00 43 1012.1
20240621141908 93 124 2.0 3.0 0.00 0.00 0.00 43 1012.1
20240621141408 93 139 2.0 5.0 0.00 0.00 0.00 43 1012.2
20240621140908 93 111 2.0 3.0 0.00 0.00 0.00 43 1012.2
20240621140408 93 167 1.0 5.0 0.00 0.00 0.00 43 1012.3
20240621135908 93 144 2.0 3.0 0.00 0.00 0.00 42 1012.3
20240621135408 93 106 2.0 3.0 0.00 0.00 0.00 43 1012.5
20240621134408 93 207 1.0 3.0 0.00 0.00 0.00 44 1012.5
20240621133909 94 158 1.0 6.0 0.00 0.00 0.00 43 1012.5
20240621133409 94 187 2.0 6.0 0.00 0.00 0.00 42 1012.5
20240621132908 95 222 2.0 3.0 0.00 0.00 0.00 39 1012.5
20240621132408 95 140 1.0 3.0 0.00 0.00 0.00 39 1012.6
20240621131909 95 161 1.0 2.0 0.00 0.00 0.00 39 1012.6
20240621131408 95 102 1.0 3.0 0.00 0.00 0.00 40 1012.6
20240621130909 95 209 1.0 3.0 0.00 0.00 0.00 41 1012.7
20240621130408 94 181 1.0 3.0 0.00 0.00 0.00 42 1012.7
20240621125409 94 135 2.0 6.0 0.00 0.00 0.00 42 1012.9
20240621124908 94 156 2.0 5.0 0.00 0.00 0.00 42 1012.9
20240621124408 95 214 1.0 3.0 0.00 0.00 0.00 41 1012.9
20240621123908 94 120 2.0 5.0 0.00 0.00 0.00 41 1013.0
20240621123409 95 149 2.0 3.0 0.00 0.00 0.00 41 1013.0
20240621122908 95 141 3.0 8.0 0.00 0.00 0.00 41 1013.0
20240621122412 95 129 2.0 3.0 0.00 0.00 0.00 40 1013.1
20240621121908 95 94 1.0 3.0 0.00 0.00 0.00 41 1013.1
20240621121408 95 231 2.0 3.0 0.00 0.00 0.00 40 1013.1
20240621120908 94 6 1.0 2.0 0.00 0.00 0.00 42 1013.2
20240621120408 94 234 2.0 8.0 0.00 0.00 0.00 42 1013.1
20240621115908 93 202 1.0 3.0 0.00 0.00 0.00 44 1013.1
20240621115408 93 212 2.0 3.0 0.00 0.00 0.00 45 1013.2
20240621114908 93 140 3.0 7.0 0.00 0.00 0.00 43 1013.3
20240621114407 92 231 2.0 3.0 0.00 0.00 0.00 45 1013.3
20240621113908 93 223 2.0 3.0 0.00 0.00 0.00 45 1013.3
20240621112908 94 202 2.0 3.0 0.00 0.00 0.00 43 1013.3
20240621112409 93 179 1.0 5.0 0.00 0.00 0.00 44 1013.3
20240621111907 93 220 3.0 5.0 0.00 0.00 0.00 45 1013.2
20240621111408 93 238 2.0 5.0 0.00 0.00 0.00 46 1013.2
20240621110909 93 242 2.0 6.0 0.00 0.00 0.00 45 1013.2
20240621110409 94 243 1.0 5.0 0.00 0.00 0.00 44 1013.3
20240621105908 94 204 2.0 5.0 0.00 0.00 0.00 42 1013.2
20240621105408 94 189 1.0 3.0 0.00 0.00 0.00 43 1013.3
20240621104908 94 200 1.0 3.0 0.00 0.00 0.00 42 1013.3
20240621104408 94 182 2.0 8.0 0.00 0.00 0.00 42 1013.4
20240621103908 95 84 1.0 2.0 0.00 0.00 0.00 42 1013.4
20240621103409 95 277 1.0 5.0 0.00 0.00 0.00 41 1013.4
20240621102908 94 171 1.0 3.0 0.00 0.00 0.00 42 1013.4
20240621102409 94 139 2.0 3.0 0.00 0.00 0.00 42 1013.5
20240621101909 94 158 2.0 5.0 0.00 0.00 0.00 42 1013.6
20240621101408 94 169 2.0 6.0 0.00 0.00 0.00 42 1013.6
20240621100908 94 269 1.0 3.0 0.00 0.00 0.00 42 1013.6
20240621100408 94 128 1.0 3.0 0.00 0.00 0.00 42 1013.6
20240621095908 93 165 1.0 3.0 0.00 0.00 0.00 42 1013.6
20240621094908 94 182 1.0 3.0 0.00 0.00 0.00 42 1013.7
20240621094408 94 229 2.0 3.0 0.00 0.00 0.00 41 1013.6
20240621093908 94 186 1.0 3.0 0.00 0.00 0.00 41 1013.6
20240621092908 96 202 1.0 3.0 0.00 0.00 0.00 39 1013.6
20240621092408 97 175 1.0 3.0 0.00 0.00 0.00 37 1013.6
20240621091408 98 75 2.0 3.0 0.00 0.00 0.00 34 1013.5
20240621090908 98 95 1.0 3.0 0.00 0.00 0.00 35 1013.5
20240621090408 97 138 2.0 6.0 0.00 0.00 0.00 35 1013.5
20240621085907 97 129 2.0 6.0 0.00 0.00 0.00 35 1013.5
20240621085408 98 69 3.0 7.0 0.00 0.00 0.00 35 1013.4
20240621084909 97 104 1.0 5.0 0.00 0.00 0.00 35 1013.4
20240621084408 97 44 2.0 5.0 0.00 0.00 0.00 35 1013.5
20240621083408 96 74 1.0 3.0 0.00 0.00 0.00 36 1013.5
20240621082908 96 32 2.0 5.0 0.00 0.00 0.00 36 1013.5
20240621082408 96 56 2.0 3.0 0.00 0.00 0.00 36 1013.6
20240621081908 96 68 2.0 3.0 0.00 0.00 0.00 36 1013.6
20240621081407 96 53 2.0 3.0 0.00 0.00 0.00 37 1013.5
20240621080909 96 62 1.0 3.0 0.00 0.00 0.00 38 1013.5
20240621080408 95 53 2.0 3.0 0.00 0.00 0.00 38 1013.4
20240621075908 95 39 3.0 3.0 0.00 0.00 0.00 38 1013.4
20240621075408 95 43 2.0 3.0 0.00 0.00 0.00 38 1013.4
20240621074908 95 69 1.0 3.0 0.00 0.00 0.00 38 1013.5
20240621074408 95 46 2.0 6.0 0.00 0.00 0.00 38 1013.4
20240621073907 95 55 2.0 3.0 0.00 0.00 0.00 38 1013.4
20240621073408 95 49 1.0 3.0 0.00 0.00 0.00 38 1013.5
20240621072908 94 51 1.0 3.0 0.00 0.00 0.00 39 1013.5
20240621071407 93 43 2.0 3.0 0.00 0.00 0.00 40 1013.6
20240621070409 92 43 1.0 3.0 0.00 0.00 0.00 41 1013.5
20240621065908 91 71 1.0 3.0 0.00 0.00 0.00 43 1013.5
20240621064908 89 252 1.0 3.0 0.00 0.00 0.00 49 1013.6
20240621064407 90 240 0.0 2.0 0.00 0.00 0.00 49 1013.6
20240621063907 92 219 1.0 3.0 0.00 0.00 0.00 47 1013.5
20240621063408 91 317 0.0 3.0 0.00 0.00 0.00 44 1013.5
20240621062908 89 288 0.0 2.0 0.00 0.00 0.00 45 1013.5
20240621062408 88 288 0.0 1.0 0.00 0.00 0.00 47 1013.4
20240621061908 87 288 1.0 2.0 0.00 0.00 0.00 50 1013.5
20240621061408 85 288 0.0 1.0 0.00 0.00 0.00 52 1013.4
20240621060908 85 288 1.0 3.0 0.00 0.00 0.00 53 1013.4
20240621060408 85 263 2.0 3.0 0.00 0.00 0.00 54 1013.4
20240621055907 85 267 2.0 3.0 0.00 0.00 0.00 51 1013.3
20240621054908 87 272 1.0 2.0 0.00 0.00 0.00 52 1013.3
20240621054408 87 274 1.0 2.0 0.00 0.00 0.00 49 1013.3
20240621053908 86 276 1.0 2.0 0.00 0.00 0.00 47 1013.3
20240621053408 86 264 2.0 3.0 0.00 0.00 0.00 49 1013.3
20240621052907 85 269 1.0 2.0 0.00 0.00 0.00 50 1013.3
20240621052408 85 270 1.0 3.0 0.00 0.00 0.00 50 1013.3
20240621051908 85 273 2.0 3.0 0.00 0.00 0.00 50 1013.3
20240621051408 87 273 1.0 3.0 0.00 0.00 0.00 48 1013.3
20240621050908 87 299 1.0 3.0 0.00 0.00 0.00 45 1013.2
20240621050408 86 316 1.0 2.0 0.00 0.00 0.00 46 1013.2
20240621045907 86 316 1.0 2.0 0.00 0.00 0.00 47 1013.2
20240621045407 85 273 1.0 2.0 0.00 0.00 0.00 48 1013.2
20240621044907 85 263 2.0 2.0 0.00 0.00 0.00 48 1013.3
20240621044407 86 254 1.0 2.0 0.00 0.00 0.00 47 1013.3
20240621043408 86 299 1.0 2.0 0.00 0.00 0.00 45 1013.2
20240621042907 86 263 0.0 3.0 0.00 0.00 0.00 45 1013.2
20240621041908 86 334 1.0 3.0 0.00 0.00 0.00 45 1013.3
20240621041408 86 54 1.0 3.0 0.00 0.00 0.00 45 1013.3
20240621040906 86 2 2.0 3.0 0.00 0.00 0.00 45 1013.3
20240621040415 86 8 2.0 3.0 0.00 0.00 0.00 45 1013.3
20240621035407 86 289 1.0 3.0 0.00 0.00 0.00 45 1013.2
20240621034907 86 337 2.0 3.0 0.00 0.00 0.00 45 1013.3
20240621033908 86 333 2.0 3.0 0.00 0.00 0.00 45 1013.2
20240621033407 86 357 2.0 3.0 0.00 0.00 0.00 44 1013.2
20240621032908 86 304 2.0 3.0 0.00 0.00 0.00 44 1013.3
20240621032408 86 317 2.0 3.0 0.00 0.00 0.00 43 1013.3
20240621031907 86 313 1.0 3.0 0.00 0.00 0.00 43 1013.4
20240621031407 87 20 1.0 3.0 0.00 0.00 0.00 43 1013.4
20240621030907 87 25 1.0 3.0 0.00 0.00 0.00 42 1013.4
20240621030408 87 39 1.0 3.0 0.00 0.00 0.00 41 1013.4
20240621025908 87 345 2.0 3.0 0.00 0.00 0.00 41 1013.3
20240621025408 87 107 2.0 3.0 0.00 0.00 0.00 41 1013.3
20240621024908 87 304 2.0 3.0 0.00 0.00 0.00 40 1013.2
20240621023908 87 28 1.0 3.0 0.00 0.00 0.00 39 1013.2
20240621023408 87 17 2.0 3.0 0.00 0.00 0.00 39 1013.2
20240621022407 88 17 1.0 3.0 0.00 0.00 0.00 38 1013.3
20240621021907 88 338 2.0 5.0 0.00 0.00 0.00 37 1013.2
20240621021407 88 323 2.0 6.0 0.00 0.00 0.00 37 1013.3
20240621020408 88 340 2.0 6.0 0.00 0.00 0.00 36 1013.2
20240621015907 89 345 2.0 6.0 0.00 0.00 0.00 36 1013.2
20240621015407 89 13 2.0 5.0 0.00 0.00 0.00 36 1013.1
20240621014908 89 5 2.0 5.0 0.00 0.00 0.00 35 1013.1
20240621014407 89 16 2.0 5.0 0.00 0.00 0.00 35 1013.1
20240621013907 89 334 2.0 12.0 0.00 0.00 0.00 33 1013.1
20240621012907 89 354 2.0 8.0 0.00 0.00 0.00 32 1013.2
20240621012407 89 2 3.0 14.0 0.00 0.00 0.00 32 1013.2
20240621011907 89 309 2.0 12.0 0.00 0.00 0.00 33 1013.2
20240621011407 89 326 2.0 12.0 0.00 0.00 0.00 33 1013.2
20240621010907 89 303 2.0 10.0 0.00 0.00 0.00 33 1013.3
20240621010407 89 348 3.0 12.0 0.00 0.00 0.00 32 1013.3
20240621005407 89 333 2.0 3.0 0.00 0.00 0.00 32 1013.4
20240621004907 89 279 1.0 6.0 0.00 0.00 0.00 32 1013.4
20240621004407 89 355 1.0 3.0 0.00 0.00 0.00 32 1013.4
20240621003908 89 350 1.0 3.0 0.00 0.00 0.00 32 1013.4
20240621003407 89 321 1.0 3.0 0.00 0.00 0.00 32 1013.5
20240621002908 89 311 1.0 3.0 0.00 0.00 0.00 33 1013.6
20240621002407 89 289 1.0 3.0 0.00 0.00 0.00 33 1013.6
20240621001907 89 252 1.0 2.0 0.00 0.00 0.00 34 1013.6
20240621000907 89 254 1.0 2.0 0.00 0.00 0.00 35 1013.8
20240621000409 89 240 1.0 3.0 0.00 0.00 0.00 35 1013.8
20240620235907 88 269 1.0 2.0 0.00 0.00 0.00 35 1013.9
20240620235407 88 266 1.0 3.0 0.00 0.00 0.00 36 1013.9
20240620234907 88 260 1.0 3.0 0.00 0.00 0.00 37 1014.0
20240620234407 88 260 1.0 2.0 0.00 0.00 0.00 36 1014.0
20240620233908 89 241 1.0 2.0 0.00 0.00 0.00 38 1014.0
20240620233407 89 220 0.0 2.0 0.00 0.00 0.00 38 1014.1
20240620232407 90 192 1.0 2.0 0.00 0.00 0.00 33 1014.1
20240620231908 90 262 1.0 3.0 0.00 0.00 0.00 32 1014.1
20240620231407 90 301 1.0 3.0 0.00 0.00 0.00 32 1014.1
20240620225907 90 299 1.0 3.0 0.00 0.00 0.00 32 1014.1
20240620225408 90 334 1.0 3.0 0.00 0.00 0.00 32 1014.2
20240620224908 90 288 1.0 3.0 0.00 0.00 0.00 33 1014.3
20240620224407 89 1 2.0 3.0 0.00 0.00 0.00 33 1014.3
20240620223907 89 341 1.0 3.0 0.00 0.00 0.00 35 1014.3
20240620223407 89 332 1.0 3.0 0.00 0.00 0.00 36 1014.3
20240620222907 89 324 1.0 3.0 0.00 0.00 0.00 37 1014.4
20240620221907 88 345 2.0 3.0 0.00 0.00 0.00 38 1014.5
20240620221406 88 336 2.0 5.0 0.00 0.00 0.00 38 1014.5
20240620220907 88 280 1.0 3.0 0.00 0.00 0.00 38 1014.5
20240620220407 88 301 2.0 3.0 0.00 0.00 0.00 37 1014.6
20240620215907 88 340 2.0 3.0 0.00 0.00 0.00 37 1014.7
20240620215407 88 312 2.0 3.0 0.00 0.00 0.00 36 1014.6
20240620214907 88 303 2.0 3.0 0.00 0.00 0.00 35 1014.7
20240620214407 88 318 2.0 3.0 0.00 0.00 0.00 35 1014.6
20240620213908 88 321 2.0 3.0 0.00 0.00 0.00 35 1014.6
20240620213407 88 277 2.0 3.0 0.00 0.00 0.00 36 1014.7
20240620212907 88 329 2.0 5.0 0.00 0.00 0.00 36 1014.7
20240620211907 88 39 1.0 5.0 0.00 0.00 0.00 37 1014.7
20240620211407 88 328 2.0 9.0 0.00 0.00 0.00 37 1014.6
20240620210907 88 325 2.0 5.0 0.00 0.00 0.00 37 1014.6
20240620210407 88 320 2.0 6.0 0.00 0.00 0.00 37 1014.6
20240620205908 88 329 2.0 8.0 0.00 0.00 0.00 37 1014.5
20240620205407 88 309 5.0 14.0 0.00 0.00 0.00 36 1014.5
20240620204907 88 348 3.0 12.0 0.00 0.00 0.00 36 1014.6
20240620204407 88 331 3.0 9.0 0.00 0.00 0.00 36 1014.6
20240620203908 88 327 5.0 12.0 0.00 0.00 0.00 36 1014.5
20240620203407 88 4 3.0 12.0 0.00 0.00 0.00 36 1014.6
20240620202908 88 337 3.0 10.0 0.00 0.00 0.00 36 1014.6
20240620202407 88 315 3.0 12.0 0.00 0.00 0.00 37 1014.8
20240620201907 88 338 2.0 8.0 0.00 0.00 0.00 37 1014.7
20240620201407 88 317 4.0 9.0 0.00 0.00 0.00 37 1014.7
20240620200907 88 317 5.0 10.0 0.00 0.00 0.00 37 1014.7
20240620200407 88 323 3.0 8.0 0.00 0.00 0.00 37 1014.7
20240620195407 89 306 2.0 12.0 0.00 0.00 0.00 35 1014.7
20240620194907 89 324 2.0 12.0 0.00 0.00 0.00 34 1014.5
20240620194407 89 332 3.0 10.0 0.00 0.00 0.00 33 1014.5
20240620193908 90 326 4.0 8.0 0.00 0.00 0.00 33 1014.4
20240620193407 90 328 2.0 6.0 0.00 0.00 0.00 32 1014.4
20240620192907 90 336 4.0 12.0 0.00 0.00 0.00 32 1014.3
20240620192408 90 317 2.0 9.0 0.00 0.00 0.00 32 1014.4
20240620191907 90 301 2.0 6.0 0.00 0.00 0.00 32 1014.4
20240620191407 90 351 3.0 12.0 0.00 0.00 0.00 33 1014.3
20240620190908 90 331 3.0 9.0 0.00 0.00 0.00 32 1014.3
20240620185907 90 0 2.0 8.0 0.00 0.00 0.00 32 1014.1
20240620185407 91 352 2.0 6.0 0.00 0.00 0.00 32 1014.0
20240620184407 91 337 2.0 8.0 0.00 0.00 0.00 31 1013.9
20240620183907 92 354 2.0 8.0 0.00 0.00 0.00 31 1013.8
20240620183407 92 310 2.0 12.0 0.00 0.00 0.00 30 1013.9
20240620182907 92 6 3.0 16.0 0.00 0.00 0.00 29 1013.9
20240620182408 92 332 3.0 10.0 0.00 0.00 0.00 30 1013.8
20240620180907 93 6 2.0 8.0 0.00 0.00 0.00 28 1013.9
20240620180407 93 311 2.0 5.0 0.00 0.00 0.00 28 1013.9
20240620175907 94 358 2.0 6.0 0.00 0.00 0.00 28 1013.9
20240620175407 94 171 2.0 9.0 0.00 0.00 0.00 28 1013.8
20240620174907 94 353 3.0 8.0 0.00 0.00 0.00 28 1013.9
20240620174407 94 324 2.0 10.0 0.00 0.00 0.00 28 1013.9
20240620173408 94 337 3.0 8.0 0.00 0.00 0.00 28 1014.0
20240620172407 95 342 2.0 9.0 0.00 0.00 0.00 27 1014.1
20240620171907 95 320 2.0 3.0 0.00 0.00 0.00 27 1014.0
20240620171407 95 340 2.0 6.0 0.00 0.00 0.00 27 1014.1
20240620170907 95 296 2.0 9.0 0.00 0.00 0.00 26 1014.0
20240620170407 96 315 2.0 6.0 0.00 0.00 0.00 27 1014.0
20240620165907 96 333 2.0 5.0 0.00 0.00 0.00 27 1014.0
20240620165407 96 18 2.0 3.0 0.00 0.00 0.00 27 1014.0
20240620163908 96 315 3.0 12.0 0.00 0.00 0.00 26 1013.9
20240620163407 96 355 3.0 12.0 0.00 0.00 0.00 26 1014.0
20240620162907 96 306 3.0 12.0 0.00 0.00 0.00 26 1014.0
20240620162407 96 312 2.0 8.0 0.00 0.00 0.00 26 1013.9
20240620160906 97 338 3.0 9.0 0.00 0.00 0.00 26 1014.0
20240620160408 97 336 2.0 6.0 0.00 0.00 0.00 26 1014.0
20240620155907 97 329 3.0 12.0 0.00 0.00 0.00 25 1014.1
20240620155407 97 333 2.0 8.0 0.00 0.00 0.00 25 1014.1
20240620154907 97 329 2.0 9.0 0.00 0.00 0.00 25 1014.1
20240620154407 97 310 1.0 10.0 0.00 0.00 0.00 26 1014.2
20240620153907 98 321 3.0 10.0 0.00 0.00 0.00 26 1014.2
20240620153407 98 4 2.0 5.0 0.00 0.00 0.00 25 1014.2
20240620152907 98 327 3.0 9.0 0.00 0.00 0.00 24 1014.2
20240620152407 98 322 2.0 8.0 0.00 0.00 0.00 24 1014.2
20240620151407 99 330 3.0 8.0 0.00 0.00 0.00 23 1014.1
20240620150907 99 4 2.0 8.0 0.00 0.00 0.00 23 1014.1
20240620150406 99 320 2.0 14.0 0.00 0.00 0.00 23 1014.1